Regional Weather Roundup
Issued by NWS

Home | Current Version | Previous Version | Graphics & Text | Print | Product List | Glossary Off
Versions: 1 2 3 4 5 6 7 8 9 10 11 12 13 14 15 16 17 18 19 20 21 22 23 24 25 26 27 28 29 30 31 32 33 34 35 36 37 38 39 40 41 42 43 44 45 46 47 48 49 50

000
ASUS43 KMKX 311411
RWRWI

WISCONSIN REGIONAL WEATHER ROUNDUP
NATIONAL WEATHER SERVICE MILWAUKEE/SULLIVAN WI
900 AM CDT FRI JUL 31 2015

NOTE: "FAIR" INDICATES FEW OR NO CLOUDS BELOW 12,000 FEET WITH NO
SIGNIFICANT WEATHER AND/OR OBSTRUCTIONS TO VISIBILITY.

WIZ001-002-006>008-014>016-023>028-311500-
NORTHWEST WISCONSIN

CITY           SKY/WX    TMP DP  RH WIND       PRES   REMARKS
SUPERIOR ARPT  SUNNY     69  55  62 NW10G16   29.98R
ASHLAND        SUNNY     70  56  61 W7        29.96R
HAYWARD        SUNNY     69  54  58 VRB6      30.00S
SIREN          SUNNY     68  54  60 W13G20    30.03S
CUMBERLAND     SUNNY     66  54  63 W10       30.03S
RICE LAKE      SUNNY     67  55  65 W12       30.04S
CHETEK         SUNNY     69  56  64 W8        30.03R
LADYSMITH      SUNNY     69  56  62 W13       30.02S
EAU CLAIRE     SUNNY     71  55  56 NW9       30.03R
MENOMONIE      SUNNY     71  53  53 W14       30.04S
NEW RICHMOND   SUNNY     69  54  57 W13       30.06R
OSCEOLA        SUNNY     69  55  60 W9        30.08R
$$

WIZ003>005-009-010-017-018-311500-
NORTH CENTRAL WISCONSIN

CITY           SKY/WX    TMP DP  RH WIND       PRES   REMARKS
MANITOWISH WTR SUNNY     66  56  70 NW14      29.95S
ARBOR VITAE    SUNNY     68  56  65 NW12      29.95S
WOODRUFF       SUNNY     68  56  65 NW12      29.95S
RHINELANDER    SUNNY     69  56  62 W10       29.96S
EAGLE RIVER    SUNNY     67  55  64 NW13      29.94S
LAND O LAKES   SUNNY     67  55  64 NW12G17   29.94S
PHILLIPS       SUNNY     66  56  69 NW8       29.98R
TOMAHAWK       SUNNY     66  56  69 W10G17    29.97S
MEDFORD        SUNNY     67  56  67 NW14      30.00S
MERRILL        NOT AVBL
$$

WIZ029-030-035-036-043>047-311500-
CENTRAL WISCONSIN

CITY           SKY/WX    TMP DP  RH WIND       PRES   REMARKS
WAUSAU         SUNNY     70  56  61 NW14      29.96S
MOSINEE        MOSUNNY   70  57  64 NW13G22   29.99R
MARSHFIELD     SUNNY     71  54  54 NW16G23   30.01R
STEVENS POINT  SUNNY     69  56  61 W9G17     29.99R
WAUPACA        SUNNY     74  58  57 W13       29.96S
WAUTOMA        SUNNY     75  56  51 NW13G18   29.99R
WISC RAPIDS    SUNNY     72  56  57 NW14      30.00S
CAMP DOUGLAS   SUNNY     72  63  73 NW15      30.02R
$$

WIZ011>013-019>022-031-037>040-048>050-311500-
NORTHEAST WISCONSIN

CITY           SKY/WX    TMP DP  RH WIND       PRES   REMARKS
ANTIGO         MOSUNNY   66  58  76 NW14G21   29.96R
SHAWANO        MOSUNNY   73  59  62 W10       29.93S
OCONTO         MOSUNNY   73  59  62 W10G20    29.89S
STURGEON BAY   SUNNY     72  57  60 W12       29.91F
GREEN BAY      SUNNY     73  61  65 W15G21    29.92F
MANITOWOC      SUNNY     76  59  55 MISG      29.92F
APPLETON       MOSUNNY   72  57  60 W14       29.95F
CLINTONVILLE   SUNNY     72  55  56 NW12G18   29.94R
OSHKOSH        SUNNY     74  58  57 W14G24    29.95F
$$

WIZ032>034-041-042-053>061-311500-
SOUTHWEST WISCONSIN

CITY           SKY/WX    TMP DP  RH WIND       PRES   REMARKS
LA CROSSE      SUNNY     75  57  53 W12       30.04R
SPARTA         SUNNY     73  56  55 W9        30.04R
VIROQUA        SUNNY     71  59  66 W8        30.07R
BOSCOBEL       SUNNY     76  63  64 W6        30.05S
PRAIRIE DU CHI SUNNY     75  57  52 NW8       30.06S
PLATTEVILLE    SUNNY     74  66  77 W7        30.07S
$$

WIZ056-057-062-063-064-067-068-311500-
SOUTH CENTRAL WISCONSIN

CITY           SKY/WX    TMP DP  RH WIND       PRES   REMARKS
REEDSBURG      SUNNY     75  58  54 W13       30.02S
BARABOO/DELLS  SUNNY     74  56  52 W9        30.02S
LONE ROCK      SUNNY     73  62  68 W9        30.04S
MINERAL POINT  SUNNY     73  63  68 W9        30.06S
MADISON        SUNNY     75  61  61 W10       30.01S
MIDDLETON      SUNNY     75  60  58 W12G17    30.03S
WATERTOWN      SUNNY     74  63  69 W8        29.99S
MONROE         SUNNY     73  63  68 W10       30.05R
JANESVILLE     SUNNY     75  64  69 W8        30.01F
$$

WIZ051-052-058>065-066-070>072-311500-
SOUTHEAST WISCONSIN

CITY           SKY/WX    TMP DP  RH WIND       PRES   REMARKS
MILWAUKEE      MOSUNNY   78  58  49 W9        29.98F
WAUKESHA       SUNNY     73  59  60 W10       30.00F
MILWAUKEE/TIMM SUNNY     75  57  53 W12       29.98F
RACINE         MOSUNNY   76  60  57 W8        30.00F
BURLINGTON     SUNNY     75  59  58 W9        30.00S
KENOSHA        MOSUNNY   76  64  66 W12       30.00S
FOND DU LAC    SUNNY     75  60  59 W13       29.96F
SHEBOYGAN      SUNNY     76  61  59 W6        29.94F
WEST BEND      SUNNY     73  55  53 W10G16    29.97F
JUNEAU         SUNNY     73  60  65 W10       30.00S
$$

LSZ147-162-311500-
LAKE SUPERIOR

STATION/POSITION TIME  TEMP    WIND        PRES    WAVE
                       AIR SEA DIR/SP/G            HT/PER
                 (UTC) (F)     (DEG/KT/KT) (MB)    (FT/S)
W MID LAKE BUOY  1350   57 52  260/ 12/ 12 1011.6R   2/ 4
DEVILS ISLAND    1400   59     260/ 16/ 19 1013.3R
PORT WING        1340   66     250/ 14/ 18 1014.6R
SAXON HARBOR     1300   67                 1013.2R
$$

LMZ867-665-643>646-311500-
LAKE MICHIGAN

STATION/POSITION TIME  TEMP    WIND        PRES    WAVE
                       AIR SEA DIR/SP/G            HT/PER
                 (UTC) (F)     (DEG/KT/KT) (MB)    (FT/S)
CHAMBERS ISLAND  1300   67     230/  7/ 12 1011.5F
S GREEN BAY BUOY 1400   67 68  270/ 10/ 12 1013.7F
N MID LAKE BUOY  1350   68 68  270/ 14/ 16 1010.4R   2/ 4
NORTHPORT PIER   1300   71     280/  5/ 10 1011.2S
SISTER BAY       1314   74     300/ 15/ 19   N/A
ALGOMA LAKESHORE 1312          270/  6/ 10   N/A
KEWAUNEE LAKESHO 1300   70     280/  7/ 13 1012.4S
SHEBOYGAN LAKESH 1400   74     260/  9/ 11 1013.6F
PORT WASHINGTON  1300   76     280/  7/ 10 1015.2F
ATWATER BUOY     1400   70 62  280/  6/  8 1016.1F
MILWAUKEE LAKESH 1300   73     280/  9/ 12   N/A
KENOSHA   LAKESH 1400   75     280/ 11/ 14 1015.2S
$$

TC  - TEMPERATURE IN CELSIUS
VSB - VISIBILITY IN STATUTE MILES
WCI - WIND CHILL INDEX
HX  - HEAT INDEX




USA.gov is the U.S. government's official web portal to all federal, state and local government web resources and services.